Weather in Kunchuruk

Russia / Novosibirsk Oblast     55°55′10″N   84°17′48″E
temp.,
°C
wind,
m/s
gust,
m/s
humid.,
%
clouds,
%
prec.,
mm/h
press.,
hPa
HPBL,
m
27 february, sat
sat2701:00−25wsw41096100 0.2 1033640
04:00−25sw3896100 0.2 1034596
07:00−25sw4996100 0.4 1035529
10:00−25sw4895100 0.1 1035528
13:00−22sw4692100 0.2 1036670
16:00−21sw3691100 0.1 1036701
19:00−24sw2796100 0.1 1036202
22:00−26sw279897 0.0 1037148
28 february, sun
sun2801:00−29sw259997 0.0 1038107
04:00−30ssw249992 0.0 103884
07:00−31ssw239890 0.0 103961
10:00−27s269573 0.0 1038211
13:00−21sse259485 0.0 1035339
16:00−19sse3590100 0.0 1032426
19:00−19ese2696100 0.0 1030155
22:00−17ese3695100 0.0 1027198
1 march, mon
mon101:00−15ese3696100 0.3 1024239
04:00−13ese3796100 0.3 1020224
07:00−11e3795100 0.8 1017283
10:00−9e4795100 0.9 1013330
13:00−6e4894100 2.0 1010515
16:00−7ene61195100 2.2 1009495
19:00−9ne51294100 4.6 1009485
22:00−12ne41093100 0.6 1011503
2 march, tue
tue201:00−14nne3894100 0.6 1013390
04:00−17nne2797100 0.0 1016184
07:00−19ne2697100 0.1 1019202
10:00−18ene2595100 0.0 1019257
13:00−15e2493100 0.2 1019343
16:00−13e2393100 0.4 1019413
19:00−14ene2596100 0.7 1018184
22:00−15ene3695100 0.1 1017233
3 march, wed
wed301:00−18ene259794 0.1 1016107
04:00−17ene369687 0.1 1015232
07:00−18ene369694 0.1 1015247
10:00−18ne3695100 0.1 1015287
13:00−15ne2493100 0.3 1016374
16:00−14ne2492100 0.1 1016455
19:00−16ne2596100 0.3 1018223
22:00−18ene2696100 0.2 1020222